Probability
0 0 0 0 0 0 0 0 0 0 0 0 0 0 0 0 0 0 0 0 0 0 0 0 0 0 0 0 0 0 0 0 0 0 0 0 0 0 0 0 0 0 0
0 0 0 0 0 0 0 0 0 0 0 0 0 0 0 0 0 0 0 0 0 0 0 0 0 0 0 0 0 0 0 0 0 0 0 0 0 0 0 0 0 0 0
0 0 0 0 0 0 0 0 0 0 0 0 0 0 0 0 0 0 0 0 0 0 0 0 0 0 0 0 0 0 0 0 0 0 0 0 0 0 0 0 0 0 0
0 0 0 0 0 0 0 0 0 0 0 0 0 0 0 0 0 0 0 0 0 0 0 0 0 0 0 0 0 0 0 0 0 0 0 0 0 0 0 0 0 0 0
0 0 0 0 0 0 0 0 0 0 0 0 0 0 0 0 0 0 0 0 0 0 0 0 0 0 0 0 0 0 0 0 0 0 0 0 0 0 0 0 0 0 0
0 0 0 0 0 0 0 0 0 0 0 0 0 0 0 0 0 0 0 0 0 0 0 0 0 0 0 0 0 0 0 0 0 0 0 0 0 0 0 0 0 0 0
0 0 0 0 0 0 0 0 0 0 0 0 0 0 0 0 0 0 0 0 0 0 0 0 0 0 0 0 0 0 0 0 0 0 0 0 0 0 0 0 0 0 0
0 0 0 0 0 0 0 0 0 0 0 0 0 0 0 0 0 0 0 0 0 0 0 0 0 0 0 0 0 0 0 0 0 0 0 0 0 0 0 0 0 0 0
0 0 0 0 0 0 0 0 0 0 0 0 0 0 0 0 0 0 0 0 0 0 0 0 0 0 0 0 0 0 0 0 0 0 0 0 0 0 0 0 0 0 0
0 0 0 0 0 0 0 0 0 0 0 0 0 0 0 0 0 0 0 0 0 0 0 0 0 0 0 0 0 0 0 0 0 0 0 0 0 0 0 0 0 0 0
0 0 0 0 0 0 0 0 0 0 0 0 0 0 0 0 0 0 0 0 0 0 0 0 0 0 0 0 0 0 0 0 0 0 0 0 0 0 0 0 0 0 0
0 0 0 0 0 0 0 0 0 0 0 0 0 0 0 0 0 0 0 0 0 0 0 0 0 0 0 0 0 0 0 0 0 0 0 0 0 0 0 0 0 0 0
0 0 0 0 0 0 0 0 0 0 0 0 0 0 0 0 0 0 0 0 0 0 0 0 0 0 0 0 0 0 0 0 0 0 0 0 0 0 0 0 0 0 0
0 0 0 0 0 0 0 0 0 0 0 0 0 0 0 0 0 0 0 0 0 0 0 0 0 0 0 0 0 0 0 0 0 0 0 0 0 0 0 0 0 0 0
0 0 0 0 0 0 0 0 0 0 0 0 0 0 0 0 0 0 0 0 0 0 0 0 0 0 0 0 0 0 0 0 0 0 0 0 0 0 0 0 0 0 0
0 0 0 0 0 0 0 0 0 0 0 0 0 0 0 0 0 0 0 0 0 0 0 0 0 0 0 0 0 0 0 0 0 0 0 0 0 0 0 0 0 0 0
0 0 0 0 0 0 0 0 0 0 0 0 0 0 0 0 0 0 0 0 0 0 0 0 0 0 0 0 0 0 0 0 0 0 0 0 0 0 0 0 0 0 0
0 0 0 0 0 0 0 0 0 0 0 0 0 0 0 0 0 0 0 0 0 0 0 0 0 0 0 0 0 0 0 0 0 0 0 0 0 0 0 0 0 0 0
0 0 0 0 0 0 0 0 0 0 0 0 0 0 0 0 0 0 0 0 0 0 0 0 0 0 0 0 0 0 0 0 0 0 0 0 0 0 0 0 0 0 0
0 0 0 0 0 0 0 0 0 0 0 0 0 0 0 0 0 0 0 0 0 0 0 0 0 0 0 0 0 0 0 0 0 0 0 0 0 0 0 0 0 0 0
0 0 0 0 0 0 0 0 0 0 0 0 0 0 0 0 0 0 0 0 0 0 0 0 0 0 0 0 0 0 0 0 0 0 0 0 0 0 0 0 0 0 0
0 0 0 0 0 0 0 0 0 0 0 0 0 0 0 0 0 0 0 0 0 0 0 0 0 0 0 0 0 0 0 0 0 0 0 0 0 0 0 0 0 0 0
0 0 0 0 0 0 0 0 0 0 0 0 0 0 0 0 0 0 0 0 0 0 0 0 0 0 0 0 0 0 0 0 0 0 0 0 0 0 0 0 0 0 0
0 0 0 0 0 0 0 0 0 0 0 0 0 0 0 0 0 0 0 0 0 0 0 0 0 0 0 0 0 0 0 0 0 0 0 0 0 0 0 0 0 0 0
0 0 0 0 0 0 0 0 0 0 0 0 0 0 0 0 0 0 0 0 0 0 0 0 0 0 0 0 0 0 0 0 0 0 0 0 0 0 0 0 0 0 0
0 0 0 0 0 0 0 0 0 0 0 0 0 0 0 0 0 0 0 0 0 0 0 0 0 0 0 0 0 0 0 0 0 0 0 0 0 0 0 0 0 0 0
Wind_Speed
5 3 3 3 3 3 3 4 4 4 5 6 6 7 8 8 8 9 11 10 11 11 10 12 13 11 10 9 9 9 10 11 17 12 5 6 9 10 10 11 10 12 12
5 4 4 4 4 4 4 4 4 5 5 6 6 6 7 8 8 10 11 11 12 13 12 11 12 9 12 10 9 10 10 11 12 16 6 5 9 9 9 10 9 10 10
6 6 5 6 6 6 6 5 5 5 5 5 5 6 7 8 8 9 11 11 11 11 10 11 11 9 11 9 10 10 9 9 11 12 10 4 4 4 6 6 7 7 8
7 6 6 7 6 6 6 6 6 5 6 6 5 6 7 7 8 8 9 10 10 10 9 9 9 9 10 9 9 10 9 9 9 10 9 4 3 3 5 7 7 8 7
7 7 7 6 6 6 7 7 7 6 6 6 6 6 6 6 6 7 8 9 9 9 8 8 8 9 10 9 7 7 7 8 8 8 8 5 5 5 6 6 7 5 5
6 6 6 6 6 6 7 7 7 7 6 6 6 7 7 6 9 11 9 8 8 8 8 7 7 7 9 11 13 12 11 9 9 8 8 8 8 7 5 6 5 5 4
5 5 5 6 7 7 7 7 7 7 7 7 7 6 7 9 12 11 10 8 8 7 7 6 5 5 6 6 9 11 11 13 14 10 10 9 6 6 7 8 7 6 4
6 6 6 7 8 8 7 7 7 6 6 7 7 7 7 8 11 11 9 7 6 6 6 6 6 5 4 5 5 6 6 6 8 7 7 4 3 5 7 7 6 5 4
7 7 8 8 9 9 9 8 7 7 7 6 6 6 7 8 9 10 8 4 4 5 4 4 4 4 6 7 6 5 5 4 6 5 3 2 4 7 8 5 6 5 3
7 8 8 7 8 9 9 9 7 6 7 7 6 5 5 6 9 9 7 3 3 3 2 2 3 4 5 6 3 3 4 3 2 1 1 1 3 5 9 6 6 5 3
6 7 8 7 7 8 8 6 7 6 6 6 6 5 4 5 8 8 7 3 3 2 2 1 2 3 3 3 2 1 2 1 0 1 1 2 2 2 3 3 3 3 3
7 8 8 8 7 6 7 7 6 6 6 6 5 6 4 4 5 6 6 5 3 1 2 1 1 2 2 3 2 1 1 1 1 2 2 2 2 2 2 3 3 3 3
8 9 9 9 7 7 7 7 6 5 4 5 4 5 4 3 4 6 5 3 1 0 0 1 1 3 3 3 4 5 3 2 2 2 2 2 2 2 3 3 4 5 6
8 9 8 8 8 7 5 5 5 5 4 4 4 4 4 4 3 2 2 1 1 1 1 2 4 6 5 5 4 4 3 3 2 2 2 2 2 3 3 2 2 2 2
8 8 8 8 8 7 6 5 6 5 5 5 4 4 4 4 4 3 1 0 1 2 3 3 3 3 3 4 4 4 4 3 3 2 2 2 2 2 2 2 2 2 1
9 8 6 6 6 6 6 5 6 6 6 6 5 4 3 4 4 2 1 3 4 6 4 3 3 3 4 4 4 4 4 4 4 3 3 2 2 2 2 1 1 1 1
9 9 7 7 7 6 5 5 4 2 1 2 4 3 3 2 2 3 5 7 8 7 5 4 3 3 3 3 4 3 3 4 3 3 3 3 2 2 2 1 1 1 1
8 9 9 7 7 7 6 5 4 3 2 1 4 6 6 6 6 5 6 7 6 6 4 4 3 3 3 3 3 3 3 3 3 3 3 3 3 2 2 1 1 0 0
8 8 7 7 7 6 5 4 3 2 2 0 1 3 6 7 10 11 9 5 4 4 4 4 3 3 3 3 3 3 3 3 3 3 3 3 2 2 2 1 1 1 1
8 10 9 7 6 5 4 3 3 3 2 1 0 1 2 3 4 5 6 4 5 4 3 3 3 3 3 3 3 3 3 3 3 3 3 3 2 2 2 1 1 1 0
7 7 8 6 5 5 4 3 3 3 3 2 1 2 4 3 4 4 4 4 3 3 3 3 2 3 2 2 2 3 3 2 2 2 2 2 2 2 2 1 1 1 1
6 6 5 5 4 3 2 2 3 3 4 4 2 2 6 5 4 3 3 3 2 2 2 2 2 2 1 1 1 2 2 2 1 1 1 1 1 1 1 1 1 1 0
6 5 4 3 2 2 1 2 2 3 4 3 3 3 3 3 3 3 2 2 2 2 2 2 1 1 1 1 1 1 0 0 1 0 0 0 0 0 0 0 0 0 0
5 4 3 2 1 1 1 2 3 3 4 4 3 3 3 2 2 2 2 1 1 1 1 1 0 0 1 1 1 1 1 2 1 1 2 1 1 1 0 0 1 1 1
3 3 2 1 0 1 2 2 3 3 3 3 3 2 2 2 2 1 1 1 0 0 1 1 1 1 2 2 2 2 4 4 3 3 2 2 2 2 2 2 1 1 2
3 2 1 1 1 1 2 2 2 3 2 2 2 2 1 1 1 1 1 1 1 1 2 2 2 3 3 3 4 5 6 6 6 6 5 3 3 3 3 2 3 2 2
Wind_Direction
16 7 358 339 317 295 278 273 269 263 252 245 242 241 242 245 242 243 246 244 245 245 236 233 235 229 231 230 227 228 229 232 258 268 216 201 201 214 218 216 216 218 223
5 6 2 352 344 332 314 302 289 277 265 254 249 246 246 246 244 244 250 247 247 249 245 241 241 233 233 233 231 232 233 230 245 266 258 205 210 211 211 211 212 214 216
6 8 6 2 354 340 327 319 311 298 289 276 260 254 253 250 248 247 252 254 252 252 250 246 245 236 239 236 234 238 238 237 238 254 263 218 207 196 202 209 208 210 212
4 7 4 356 346 334 329 326 322 314 303 295 279 267 263 259 254 253 253 257 258 257 253 249 246 239 243 241 242 243 244 246 243 249 257 232 195 178 189 203 211 207 208
2 4 356 345 339 337 336 331 325 320 310 302 296 288 278 268 261 255 255 257 260 262 258 253 250 248 248 247 248 252 249 254 253 251 252 234 205 188 203 197 207 195 198
357 351 341 340 340 340 334 328 324 320 316 313 305 297 292 282 278 268 260 258 256 258 262 259 255 253 256 259 260 259 256 257 259 254 253 244 230 210 193 186 181 172 193
350 344 343 341 338 334 329 327 326 322 318 313 306 301 295 293 294 286 272 263 260 258 257 259 257 250 251 256 265 269 267 264 262 262 261 253 231 197 184 186 187 183 180
352 349 347 343 336 330 328 325 322 317 313 308 305 300 297 298 301 295 286 268 263 262 256 252 255 261 252 258 262 266 268 271 273 265 257 251 212 184 186 183 175 148 97
349 343 339 336 329 327 325 321 318 314 310 305 301 302 299 302 309 304 298 278 271 271 265 258 257 263 271 273 268 270 280 285 296 288 269 214 181 173 162 146 148 148 141
332 326 323 321 318 314 311 310 309 306 303 305 304 304 301 300 308 308 302 277 277 280 279 274 269 272 281 284 266 264 278 291 314 334 351 119 143 161 164 159 159 161 141
317 314 312 310 305 299 300 301 303 303 302 302 301 302 302 301 306 307 301 274 256 270 275 285 293 308 310 316 300 264 269 291 61 89 84 92 104 121 140 139 141 149 151
315 310 307 304 301 299 297 299 297 295 297 297 299 301 298 299 299 303 304 290 264 245 266 280 299 355 18 23 22 35 55 76 88 90 88 85 89 92 92 97 95 78 72
312 305 302 301 295 289 287 291 294 287 285 290 292 294 300 302 302 309 313 310 280 182 174 121 70 58 56 44 51 63 61 67 84 87 84 69 65 82 85 80 72 74 64
301 300 299 297 295 290 280 275 277 278 277 278 280 285 292 297 295 291 295 338 67 82 70 61 66 66 64 59 53 50 47 57 78 87 81 67 65 72 74 75 84 85 81
294 291 290 285 284 286 279 266 266 257 249 262 264 261 274 287 290 291 256 178 163 129 98 62 47 45 45 44 44 41 41 46 52 56 74 75 73 75 66 60 80 91 109
294 292 288 286 282 277 280 287 275 267 274 272 274 272 270 279 299 327 59 95 105 113 90 69 62 56 52 46 47 44 41 37 33 44 59 63 70 76 73 60 69 102 132
279 285 284 280 277 272 267 265 277 296 313 350 355 345 336 347 16 77 86 83 80 89 76 70 66 59 54 49 49 48 40 27 27 44 53 52 55 60 71 73 71 74 85
277 277 273 271 268 264 257 251 247 242 258 328 0 23 32 45 49 65 86 80 60 56 63 69 65 57 54 55 51 49 47 39 41 48 51 50 50 55 57 56 58 75 117
280 276 272 271 267 262 254 243 231 214 196 216 345 7 18 39 48 51 58 67 79 68 59 59 56 54 50 48 48 49 51 49 45 48 48 44 38 48 55 49 46 51 71
275 273 273 272 271 262 246 227 207 182 163 148 87 357 2 34 44 35 41 57 73 73 68 66 57 54 51 49 47 50 53 50 44 44 41 36 30 40 52 46 45 45 12
279 277 273 270 263 255 240 216 189 167 157 143 107 72 98 87 82 70 64 61 67 72 68 66 60 52 47 45 48 54 58 52 45 44 40 34 33 35 29 36 41 48 63
274 275 272 267 264 253 233 195 164 151 144 134 104 74 92 88 90 88 78 69 60 60 61 75 72 56 44 41 43 53 58 52 38 37 34 34 38 40 38 42 40 45 76
275 274 273 271 261 233 194 153 140 136 132 126 119 105 91 93 96 96 91 79 69 62 53 62 74 55 32 25 24 49 93 269 262 225 187 34 37 40 50 51 85 214 225
283 277 272 269 255 203 151 132 123 122 124 123 119 114 109 109 108 105 101 92 77 62 50 49 58 331 324 323 303 280 253 246 231 215 205 199 212 220 211 221 234 233 235
299 296 293 287 210 125 116 114 113 116 118 121 120 118 116 119 121 117 115 113 95 343 289 273 251 258 269 276 275 269 272 273 248 213 197 192 202 209 210 219 222 224 222
329 336 345 12 64 90 109 118 118 120 122 124 125 128 135 149 162 166 181 213 247 259 263 258 255 261 268 269 270 270 263 258 241 220 192 189 197 207 205 213 219 219 219